[[{"header":{"parameterUnit":"m.s-1","parameterCategory":2,"la1":30.2991,"la2":30.254,"lo1":-89.0895,"lo2":-89.0444,"dy":0.0017,"dx":0.0017,"nx":28,"ny":28,"refTime":"2023-09-09T21:00:00:Z","depth":"0","parameterNumber":2,"parameterNumberName":"U-component_of_CURRENTS"},"data":[0,0,0,0,0,0,0,0,0,0,0,0,0,0,0,0,0,0,0,0,0,0,0,0,0,0,0,0,0,0,0,0,0,0,0,0,0,0,0,0,0,0,0,0,0,0,0,0,0,0,0,0,0,0,0,0,0,0,0.3701,0.3702,0,0.3705,0.3704,0.3704,0.3684,0.3684,0.3684,0.3684,0.3649,0.3648,0.3647,0,0,0,0,0,0,0,0,0,0,0,0,0,0.3621,0.3622,0.3701,0.3702,0.3703,0.3705,0.3704,0.3704,0.3684,0.3684,0.3684,0.3684,0.3649,0.3648,0.3647,0,0,0,0,0,0,0,0,0,0,0,0,0,0.3638,0.3623,0.3701,0.3698,0.3698,0.3705,0.3704,0.3704,0.3684,0.3684,0.3684,0.3684,0.3649,0.3648,0.3647,0.3638,0,0,0.3642,0.3642,0,0,0,0,0,0,0,0,0.3637,0.364,0.3698,0.3698,0.3698,0.3699,0.3663,0.3682,0.3684,0.3683,0.3684,0.3684,0.3666,0.3663,0.3656,0.3636,0.3635,0.3642,0.3641,0.3641,0.364,0,0,0,0,0,0,0,0.3636,0.3639,0.3697,0.3698,0.3699,0.3677,0.3679,0.3666,0.3669,0.3683,0.3683,0.3693,0.3665,0.3657,0.3655,0.3634,0.3642,0.3641,0.364,0.3639,0.3659,0.366,0,0,0,0,0,0,0.3651,0.3639,0.3697,0.3697,0.3674,0.3679,0.3681,0.3694,0.367,0.3669,0.3693,0.3692,0.366,0.3657,0.3654,0.3717,0.3641,0.3639,0.3639,0.3658,0.3659,0.3661,0,0,0,0,0,0,0.3649,0.3656,0.3697,0.3672,0.3677,0.3681,0.3695,0.3694,0.3689,0.3679,0.3676,0.3691,0.366,0.3656,0.3673,0.3712,0.3639,0.3637,0.3656,0.3658,0.366,0.3795,0,0,0,0,0,0,0.3647,0.3655,0.365,0.3674,0.3679,0.3698,0.3696,0.3695,0.3699,0.3697,0.3676,0.3673,0.3659,0.3676,0.3672,0.3709,0.3636,0.3654,0.3657,0.3659,0.3789,0.3801,0.3812,0,0,0,0,0,0.3644,0.3641,0.365,0.3656,0.3679,0.3698,0.3697,0.3696,0.3699,0.3692,0.3706,0.3673,0.3688,0.3676,0.3671,0.3709,0.3653,0.3656,0.3659,0.3783,0.3799,0.3812,0,0,0,0,0,0,0.3593,0.3641,0.365,0.3659,0.3678,0.3697,0.3687,0.3699,0.3702,0.3703,0.3695,0.3693,0.3721,0.3691,0.3678,0.3719,0.3663,0.3665,0.3759,0.3773,0.3785,0.3769,0.3635,0,0,0,0,0,0.3585,0.3608,0.364,0.365,0.3654,0.3672,0.3675,0.3687,0.3703,0.3703,0.3703,0.3706,0.3728,0.3732,0.3728,0.375,0.3741,0.3768,0.378,0.379,0.3773,0.3805,0.3818,0.3671,0.3671,0.3671,0,0,0.3574,0.3602,0.3614,0.3642,0.365,0.3678,0.3671,0.3685,0.3722,0.37,0.3733,0.3741,0.3741,0.378,0.3788,0.3762,0.3838,0.3794,0.3803,0.3779,0.3809,0.3824,0.3837,0.3673,0.3672,0.3672,0,0,0.3576,0.3581,0.3602,0.3622,0.3651,0.3669,0.3678,0.3705,0.3719,0.3759,0.3772,0.3805,0.3811,0.3841,0.3854,0.3919,0.3896,0.3918,0.397,0.4004,0.4016,0.4027,0.4084,0.4099,0.3927,0.3927,0.3928,0,0.3556,0.3597,0.3607,0.3635,0.3658,0.3673,0.3705,0.3727,0.3765,0.3791,0.3777,0.3841,0.3842,0.3921,0.3955,0.3947,0.3967,0.3927,0.4021,0.4031,0.404,0.4095,0.411,0.3934,0.3933,0.3933,0.3932,0,0.3589,0.3614,0.3623,0.3678,0.3697,0.3723,0.3767,0.3791,0.3815,0.3847,0.391,0.3929,0.3966,0.3988,0.3996,0.4074,0.4072,0.4036,0.3991,0.4063,0.4117,0.413,0.3944,0.3942,0.394,0.3938,0,0,0.3562,0.3635,0.3637,0.3667,0.3724,0.3744,0.3807,0.3866,0.3916,0.3945,0.4011,0.4068,0.4074,0.4089,0.4112,0.4147,0.4256,0.4126,0.4125,0.4193,0.436,0.4356,0.437,0.4246,0.4247,0.4249,0.4392,0,0.3582,0.3647,0.3683,0.3741,0.3772,0.3812,0.3871,0.3928,0.3977,0.4038,0.4074,0.413,0.4119,0.4153,0.4193,0.4222,0.4286,0.4221,0.4267,0.4269,0.4265,0.4382,0.415,0.4257,0.4404,0.4406,0.4408,0,0.3594,0.3645,0.3705,0.3783,0.3797,0.3834,0.3922,0.3981,0.4074,0.4118,0.4181,0.4201,0.4276,0.4241,0.4337,0.43,0.4344,0.4364,0.4369,0.4314,0.4287,0.4196,0.4273,0.418,0.4426,0.4425,0.4423,0,0.3564,0.3648,0.3697,0.3725,0.3818,0.3848,0.3898,0.3995,0.4054,0.4166,0.421,0.4292,0.4339,0.4377,0.4434,0.4389,0.4537,0.4473,0.4524,0.4525,0.4305,0.4283,0.4292,0.4556,0.4556,0.4555,0.4555,0,0.3564,0.3602,0.3682,0.3708,0.376,0.3833,0.3902,0.3974,0.4086,0.4161,0.4238,0.4317,0.4373,0.4458,0.4481,0.4562,0.4583,0.4556,0.4565,0.4352,0.4334,0.4219,0.4177,0.4561,0.456,0.4559,0.4558,0,0.3521,0.3578,0.363,0.3721,0.3741,0.3775,0.3877,0.3938,0.4054,0.4155,0.4188,0.4351,0.4478,0.4553,0.4658,0.4637,0.457,0.4733,0.4501,0.448,0.4379,0.4353,0.4198,0.4082,0.4771,0.4772,0.4773,0,0.351,0.3532,0.3608,0.3626,0.366,0.3723,0.3768,0.3899,0.3967,0.4174,0.4211,0.4398,0.451,0.4687,0.4694,0.4761,0.4646,0.4606,0.4461,0.4372,0.4349,0.4172,0.4071,0.4243,0.4239,0.4236,0.4234,0,0.3481,0.3498,0.3538,0.3577,0.3609,0.3657,0.3728,0.3772,0.3938,0.4024,0.4163,0.4272,0.4483,0.447,0.4619,0.4619,0.4353,0.4548,0.4482,0.3972,0.3743,0.3636,0.4189,0.4207,0.421,0.4212,0.4213,0.4214,0.3443,0.3452,0.349,0.351,0.3544,0.3567,0.356,0.3656,0.3731,0.3823,0.4004,0.408,0.4206,0.4363,0.4366,0.4231,0.4226,0.4074,0.4069,0.3914,0.3719,0.4254,0.4266,0.4269,0.4271,0.4273,0.4275,0,0.3394,0.3405,0.3426,0.3433,0.3416,0.347,0.3507,0.3478,0.3496,0.3638,0.3704,0.3757,0.3787,0.3888,0.386,0.3745,0.3522,0.3664,0.3318,0.326,0.3755,0.3649,0.3491,0.3491,0.3491,0.3491,0.3492,0.3492,0.3372,0.3359,0.3358,0.3292,0.3287,0.3212,0.3197,0.3177,0.3222,0.3224,0.3235,0.3315,0.351,0.3561,0.3467,0.3382,0.3146,0.2981,0.3051,0.3374,0.3408,0.3442,0.3332,0.3111,0.311,0.2336,0.2331,0.2327]},{"header":{"parameterUnit":"m.s-1","parameterCategory":2,"la1":30.2991,"la2":30.254,"lo1":-89.0895,"lo2":-89.0444,"dy":0.0017,"dx":0.0017,"nx":28,"ny":28,"refTime":"2023-09-09T21:00:00:Z","depth":"0","parameterNumber":3,"parameterNumberName":"V-component_of_CURRENTS"},"data":[0,0,0,0,0,0,0,0,0,0,0,0,0,0,0,0,0,0,0,0,0,0,0,0,0,0,0,0,0,0,0,0,0,0,0,0,0,0,0,0,0,0,0,0,0,0,0,0,0,0,0,0,0,0,0,0,0,0,-0.0352,-0.0353,0,-0.0373,-0.0373,-0.0373,-0.0399,-0.0399,-0.04,-0.04,-0.048,-0.0482,-0.0484,0,0,0,0,0,0,0,0,0,0,0,0,0,-0.0277,-0.0279,-0.0352,-0.0353,-0.0353,-0.0373,-0.0373,-0.0373,-0.0399,-0.0399,-0.04,-0.04,-0.048,-0.0482,-0.0484,0,0,0,0,0,0,0,0,0,0,0,0,0,-0.0305,-0.0279,-0.0352,-0.0368,-0.037,-0.0372,-0.0373,-0.0373,-0.0398,-0.0399,-0.04,-0.04,-0.0479,-0.0482,-0.0484,-0.0487,0,0,-0.0492,-0.0493,0,0,0,0,0,0,0,0,-0.0303,-0.0307,-0.0366,-0.0367,-0.0369,-0.0384,-0.0376,-0.0414,-0.0398,-0.0387,-0.04,-0.0401,-0.0453,-0.0458,-0.0459,-0.0491,-0.0494,-0.0492,-0.0494,-0.0495,-0.0496,0,0,0,0,0,0,0,-0.0301,-0.0306,-0.036,-0.0366,-0.0368,-0.0354,-0.0359,-0.0383,-0.0417,-0.0388,-0.039,-0.0393,-0.0455,-0.0456,-0.0461,-0.0495,-0.0492,-0.0495,-0.0496,-0.0497,-0.0606,-0.0607,0,0,0,0,0,0,-0.0302,-0.0305,-0.0359,-0.0361,-0.0337,-0.0355,-0.0361,-0.0378,-0.0416,-0.0422,-0.0392,-0.0394,-0.0452,-0.0458,-0.0464,-0.0526,-0.0495,-0.0497,-0.0499,-0.0605,-0.0606,-0.0608,0,0,0,0,0,0,-0.0301,-0.0307,-0.0359,-0.0332,-0.0338,-0.0357,-0.0375,-0.0378,-0.038,-0.0418,-0.0425,-0.0391,-0.0453,-0.0461,-0.0524,-0.0528,-0.0499,-0.0501,-0.0603,-0.0605,-0.0607,-0.0614,0,0,0,0,0,0,-0.0299,-0.0307,-0.0296,-0.0333,-0.034,-0.0354,-0.0375,-0.0378,-0.0381,-0.0384,-0.042,-0.0428,-0.0454,-0.052,-0.0526,-0.0531,-0.0503,-0.0601,-0.0604,-0.0606,-0.0612,-0.0616,-0.0619,0,0,0,0,0,-0.0296,-0.0281,-0.0296,-0.0301,-0.0333,-0.0353,-0.0355,-0.0369,-0.038,-0.0375,-0.0435,-0.0427,-0.0539,-0.0524,-0.0531,-0.0536,-0.06,-0.0603,-0.0606,-0.061,-0.0615,-0.0619,0,0,0,0,0,0,-0.0231,-0.0284,-0.0301,-0.0299,-0.0323,-0.0358,-0.0338,-0.0365,-0.0402,-0.0408,-0.0453,-0.0467,-0.0526,-0.0532,-0.0514,-0.0576,-0.0563,-0.0568,-0.0564,-0.0569,-0.0572,-0.0504,-0.0505,0,0,0,0,0,-0.0215,-0.0231,-0.0272,-0.0272,-0.0275,-0.0308,-0.031,-0.0334,-0.0379,-0.0393,-0.0428,-0.0475,-0.054,-0.0557,-0.0603,-0.063,-0.0607,-0.0636,-0.064,-0.0643,-0.0594,-0.0619,-0.062,-0.0618,-0.0618,-0.0617,0,0,-0.0195,-0.0221,-0.0231,-0.026,-0.0271,-0.0276,-0.031,-0.0318,-0.0331,-0.0397,-0.0419,-0.0493,-0.0557,-0.0609,-0.0631,-0.0613,-0.063,-0.0647,-0.0649,-0.0597,-0.0622,-0.0622,-0.0622,-0.062,-0.0619,-0.0619,0,0,-0.016,-0.0178,-0.0175,-0.0192,-0.0215,-0.0239,-0.0243,-0.0283,-0.03,-0.0346,-0.0419,-0.0498,-0.055,-0.0615,-0.0653,-0.0697,-0.0662,-0.0709,-0.0654,-0.0682,-0.0681,-0.068,-0.0636,-0.0631,-0.0695,-0.0695,-0.0695,0,-0.012,-0.0135,-0.0173,-0.0169,-0.0173,-0.0223,-0.0217,-0.0242,-0.0305,-0.0324,-0.0346,-0.0483,-0.0549,-0.0635,-0.066,-0.0701,-0.068,-0.0636,-0.0683,-0.0682,-0.068,-0.0636,-0.063,-0.0696,-0.0696,-0.0696,-0.0695,0,-0.009,-0.0095,-0.0086,-0.011,-0.0121,-0.0121,-0.0168,-0.0183,-0.0217,-0.0258,-0.0339,-0.0449,-0.0516,-0.0574,-0.0629,-0.067,-0.0645,-0.0699,-0.0663,-0.068,-0.0633,-0.0627,-0.0697,-0.0696,-0.0696,-0.0696,0,0,-0.001,-0.0057,-0.0048,-0.0052,-0.009,-0.0095,-0.0112,-0.0144,-0.0143,-0.0223,-0.0234,-0.039,-0.0437,-0.0483,-0.058,-0.0611,-0.0612,-0.0633,-0.0634,-0.0568,-0.0606,-0.0563,-0.0552,-0.0674,-0.0674,-0.0673,-0.057,0,0.0038,0.0051,0.0008,0.0021,0.0028,-0.0025,-0.0031,-0.0074,-0.0111,-0.0131,-0.0251,-0.0309,-0.0407,-0.0449,-0.05,-0.0597,-0.0597,-0.0629,-0.0613,-0.0609,-0.0556,-0.0545,-0.0502,-0.0404,-0.0564,-0.0563,-0.0562,0,0.0095,0.0094,0.0114,0.0085,0.0088,0.0083,0.0075,0.006,0.0006,-0.0021,-0.0094,-0.0179,-0.0266,-0.0339,-0.0441,-0.0453,-0.0498,-0.056,-0.056,-0.0499,-0.0556,-0.0418,-0.0387,-0.0569,-0.0552,-0.0553,-0.0554,0,0.0181,0.0171,0.0189,0.0182,0.0146,0.015,0.0137,0.0097,0.0117,0.0058,0.0072,-0.006,-0.009,-0.0199,-0.032,-0.0375,-0.0386,-0.0491,-0.0479,-0.0474,-0.0417,-0.0408,-0.0537,-0.0512,-0.0512,-0.0513,-0.0513,0,0.0248,0.0265,0.0234,0.0248,0.0292,0.023,0.0278,0.025,0.0243,0.0307,0.0145,0.0178,-0.0053,-0.0103,-0.0237,-0.0301,-0.0314,-0.0425,-0.0446,-0.0418,-0.0412,-0.0551,-0.0657,-0.0509,-0.051,-0.051,-0.0511,0,0.0328,0.0306,0.0337,0.0323,0.0332,0.0368,0.0398,0.0441,0.0409,0.0497,0.0491,0.0386,0.0329,0.0136,-0.0011,-0.0158,-0.0334,-0.0275,-0.0187,-0.02,-0.0403,-0.0509,-0.0564,-0.0637,-0.0257,-0.0255,-0.0254,0,0.0361,0.0387,0.0421,0.0465,0.0463,0.051,0.0561,0.0543,0.0611,0.0655,0.0724,0.067,0.0701,0.0494,0.0218,0.0033,-0.0187,-0.0088,-0.0217,-0.0366,-0.0501,-0.0588,-0.0654,-0.0133,-0.0131,-0.0129,-0.0128,0,0.0441,0.0461,0.0494,0.0592,0.0656,0.0729,0.08,0.0888,0.0917,0.1016,0.1146,0.1171,0.0973,0.078,0.0468,0.0295,-0.0208,-0.0055,-0.0257,-0.0427,-0.048,-0.0575,-0.0212,-0.0111,-0.0113,-0.0114,-0.0115,-0.0116,0.0518,0.0573,0.0639,0.0731,0.0819,0.0944,0.1042,0.1162,0.1334,0.1526,0.1514,0.1628,0.1264,0.0843,0.0555,0.0007,-0.0035,-0.0192,-0.0301,-0.037,-0.0471,-0.0025,0.006,0.0059,0.0059,0.0058,0.0058,0,0.0615,0.0678,0.0771,0.0895,0.1019,0.1032,0.1207,0.134,0.1602,0.1815,0.1978,0.191,0.1471,0.0939,0.0211,-0.0188,-0.0376,-0.0426,-0.058,-0.0637,-0.0271,-0.0302,-0.0233,-0.0233,-0.0233,-0.0232,-0.0232,-0.0232,0.0674,0.0787,0.0833,0.1052,0.1145,0.1328,0.1443,0.1666,0.1852,0.2172,0.2298,0.2344,0.1926,0.0618,-0.0305,-0.0528,-0.0835,-0.0862,-0.1038,-0.0849,-0.0838,-0.0828,-0.0886,-0.094,-0.0941,-0.1361,-0.1365,-0.1368]}],[{"header":{"parameterUnit":"m.s-1","parameterCategory":2,"la1":30.2991,"la2":30.254,"lo1":-89.0895,"lo2":-89.0444,"dy":0.0017,"dx":0.0017,"nx":28,"ny":28,"refTime":"2023-09-09T21:00:00:Z","depth":"2","parameterNumber":2,"parameterNumberName":"U-component_of_CURRENTS"},"data":[0,0,0,0,0,0,0,0,0,0,0,0,0,0,0,0,0,0,0,0,0,0,0,0,0,0,0,0,0,0,0,0,0,0,0,0,0,0,0,0,0,0,0,0,0,0,0,0,0,0,0,0,0,0,0,0,0,0,0.265,0.2651,0,0.2665,0.2665,0.2665,0.2692,0.2693,0.2694,0.2695,0.2669,0.2668,0.2666,0,0,0,0,0,0,0,0,0,0,0,0,0,0.2577,0.2579,0.265,0.2651,0.2652,0.2665,0.2665,0.2665,0.2692,0.2693,0.2694,0.2695,0.267,0.2668,0.2666,0,0,0,0,0,0,0,0,0,0,0,0,0,0.2599,0.2579,0.265,0.267,0.2672,0.2665,0.2665,0.2665,0.2692,0.2693,0.2695,0.2696,0.267,0.2668,0.2666,0.2624,0,0,0.2659,0.2658,0,0,0,0,0,0,0,0,0.2597,0.2601,0.2666,0.2669,0.2671,0.2682,0.263,0.2651,0.2692,0.268,0.2695,0.2697,0.2671,0.2669,0.2663,0.2623,0.2622,0.2658,0.2657,0.2656,0.2655,0,0,0,0,0,0,0,0.2596,0.26,0.2652,0.2667,0.267,0.2655,0.2659,0.2633,0.2664,0.2681,0.2684,0.2692,0.2672,0.2666,0.2663,0.2621,0.2658,0.2656,0.2655,0.2654,0.2683,0.2685,0,0,0,0,0,0,0.2605,0.2599,0.2652,0.2653,0.2641,0.2655,0.266,0.2674,0.2665,0.2667,0.2691,0.2693,0.2669,0.2666,0.2662,0.2754,0.2656,0.2654,0.2653,0.2681,0.2684,0.2686,0,0,0,0,0,0,0.2603,0.2609,0.2651,0.2629,0.2634,0.2656,0.267,0.2673,0.2685,0.2674,0.2674,0.2702,0.267,0.2665,0.2677,0.2748,0.2653,0.2651,0.2679,0.2682,0.2685,0.2847,0,0,0,0,0,0,0.2601,0.2609,0.2618,0.263,0.2636,0.2648,0.2669,0.2673,0.2689,0.2693,0.2683,0.2681,0.2671,0.2681,0.2675,0.2743,0.2649,0.2676,0.268,0.2684,0.2839,0.2855,0.2869,0,0,0,0,0,0.2598,0.2602,0.2618,0.2625,0.2649,0.2647,0.2648,0.2665,0.2688,0.2683,0.2706,0.2682,0.2704,0.268,0.2673,0.2742,0.2674,0.2679,0.2684,0.2832,0.2852,0.2869,0,0,0,0,0,0,0.2558,0.2606,0.2624,0.2639,0.2646,0.2654,0.266,0.2671,0.2683,0.2699,0.2693,0.2692,0.2717,0.2702,0.2677,0.2762,0.269,0.2694,0.2806,0.2824,0.2839,0.2784,0.2647,0,0,0,0,0,0.2559,0.2586,0.2611,0.2619,0.2633,0.265,0.2654,0.2665,0.268,0.2687,0.272,0.2737,0.2726,0.2754,0.2732,0.2781,0.2757,0.2824,0.284,0.2853,0.2803,0.2855,0.2871,0.2702,0.2702,0.2702,0,0,0.2539,0.2574,0.2584,0.2614,0.2631,0.2655,0.2655,0.2668,0.2692,0.268,0.2758,0.2764,0.2737,0.2792,0.2808,0.2801,0.29,0.2859,0.2871,0.2812,0.2862,0.2878,0.2893,0.2705,0.2705,0.2704,0,0,0.2527,0.2556,0.2584,0.2607,0.2644,0.2652,0.2662,0.271,0.2735,0.2765,0.2792,0.2832,0.2845,0.2876,0.2871,0.2946,0.2945,0.2984,0.306,0.3116,0.3129,0.3141,0.3184,0.3198,0.3036,0.3036,0.3037,0,0.2503,0.2552,0.2581,0.2624,0.2648,0.2661,0.2687,0.2706,0.2763,0.2804,0.2796,0.2865,0.2859,0.2924,0.2977,0.2976,0.3019,0.3002,0.3137,0.3147,0.3156,0.3197,0.321,0.3045,0.3044,0.3043,0.3042,0,0.2534,0.257,0.2588,0.266,0.2676,0.2695,0.2734,0.279,0.2822,0.2855,0.2918,0.2927,0.2984,0.3017,0.301,0.3121,0.3135,0.3122,0.3093,0.3183,0.3221,0.3232,0.3057,0.3054,0.3051,0.3049,0,0,0.2496,0.2588,0.2598,0.2642,0.2701,0.2719,0.2776,0.2829,0.2889,0.2939,0.3033,0.3033,0.309,0.3086,0.3142,0.3199,0.3329,0.3226,0.3225,0.3271,0.3483,0.3405,0.3409,0.3389,0.3391,0.3392,0.3503,0,0.2512,0.258,0.2627,0.269,0.2729,0.2781,0.2823,0.2881,0.2932,0.3049,0.3068,0.3147,0.3108,0.3191,0.3238,0.3294,0.3358,0.3299,0.338,0.338,0.3303,0.3418,0.3151,0.322,0.3513,0.3515,0.3516,0,0.2537,0.2589,0.2628,0.2723,0.2746,0.2787,0.2888,0.2937,0.3065,0.3114,0.3208,0.3262,0.3369,0.3321,0.341,0.3404,0.3444,0.3458,0.3465,0.3317,0.332,0.3164,0.3227,0.3533,0.3532,0.3531,0.353,0,0.2498,0.2597,0.2619,0.2653,0.2747,0.2799,0.2869,0.297,0.3027,0.3215,0.3286,0.3393,0.3463,0.3515,0.3549,0.3531,0.3633,0.3611,0.3557,0.3553,0.3286,0.3254,0.3655,0.3655,0.3655,0.3654,0.3654,0,0.2492,0.2536,0.2614,0.2644,0.272,0.2794,0.2883,0.2987,0.3111,0.3193,0.3345,0.3416,0.3518,0.36,0.3619,0.3619,0.3693,0.3555,0.3575,0.3341,0.3314,0.3526,0.351,0.3658,0.3657,0.3657,0.3656,0,0.2444,0.2479,0.2536,0.2643,0.2698,0.2758,0.291,0.296,0.3096,0.3227,0.3304,0.3466,0.3567,0.3644,0.3737,0.3682,0.3713,0.3699,0.3413,0.3395,0.3581,0.3572,0.3645,0.3643,0.3642,0.364,0.3639,0,0.2423,0.2433,0.2536,0.2566,0.2626,0.2735,0.279,0.2949,0.3003,0.3219,0.3267,0.345,0.3513,0.362,0.3618,0.3655,0.3713,0.3404,0.327,0.3567,0.358,0.3573,0.3567,0.3012,0.3006,0.3001,0.2997,0,0.2403,0.2413,0.2468,0.2518,0.2582,0.2658,0.2775,0.2802,0.2961,0.3055,0.316,0.3248,0.3386,0.3299,0.3382,0.3356,0.3377,0.33,0.3713,0.3049,0.2977,0.2988,0.3001,0.2952,0.2956,0.296,0.2962,0.2964,0.2397,0.24,0.2431,0.2486,0.2537,0.2551,0.2569,0.2648,0.2711,0.2803,0.2954,0.2993,0.3058,0.3035,0.2963,0.2935,0.3151,0.3,0.3012,0.3031,0.2931,0.2859,0.2794,0.2797,0.28,0.2803,0.2805,0,0.2351,0.2366,0.2399,0.2425,0.2406,0.2484,0.2516,0.2463,0.2453,0.2585,0.2646,0.2491,0.2467,0.2552,0.2435,0.2433,0.2382,0.2332,0.2239,0.2288,0.2331,0.219,0.1859,0.1856,0.1852,0.1849,0,0,0.2322,0.2312,0.2312,0.2284,0.2294,0.2237,0.2212,0.2153,0.2179,0.2137,0.2165,0.2378,0.2483,0.2142,0.2102,0.1955,0.2095,0.1879,0.2649,0.2589,0.2626,0.2741,0.2584,0,0,0,0,0]},{"header":{"parameterUnit":"m.s-1","parameterCategory":2,"la1":30.2991,"la2":30.254,"lo1":-89.0895,"lo2":-89.0444,"dy":0.0017,"dx":0.0017,"nx":28,"ny":28,"refTime":"2023-09-09T21:00:00:Z","depth":"2","parameterNumber":3,"parameterNumberName":"V-component_of_CURRENTS"},"data":[0,0,0,0,0,0,0,0,0,0,0,0,0,0,0,0,0,0,0,0,0,0,0,0,0,0,0,0,0,0,0,0,0,0,0,0,0,0,0,0,0,0,0,0,0,0,0,0,0,0,0,0,0,0,0,0,0,0,0.0264,0.0264,0,0.0221,0.022,0.022,0.0174,0.0174,0.0173,0.0173,0.007,0.0068,0.0066,0,0,0,0,0,0,0,0,0,0,0,0,0,0.0257,0.0257,0.0265,0.0264,0.0264,0.0221,0.022,0.022,0.0174,0.0174,0.0173,0.0173,0.0071,0.0069,0.0066,0,0,0,0,0,0,0,0,0,0,0,0,0,0.024,0.0257,0.0265,0.0237,0.0235,0.0221,0.022,0.0219,0.0175,0.0174,0.0173,0.0173,0.0072,0.0069,0.0065,0.0058,0,0,0.0055,0.0053,0,0,0,0,0,0,0,0,0.0241,0.024,0.0242,0.0239,0.0236,0.0204,0.018,0.0163,0.0175,0.0196,0.0173,0.0172,0.0111,0.0105,0.0096,0.0054,0.0049,0.0055,0.0053,0.0051,0.005,0,0,0,0,0,0,0,0.0242,0.0241,0.0246,0.0241,0.0238,0.021,0.0207,0.0177,0.0155,0.0194,0.0191,0.0189,0.0109,0.01,0.0093,0.0048,0.0055,0.0052,0.005,0.0048,-0.0033,-0.0033,0,0,0,0,0,0,0.0255,0.0243,0.0247,0.0244,0.0239,0.0211,0.0207,0.0214,0.0157,0.0149,0.019,0.0187,0.0106,0.0098,0.009,0.0076,0.0051,0.0048,0.0046,-0.0033,-0.0033,-0.0033,0,0,0,0,0,0,0.0255,0.0256,0.0249,0.0243,0.0241,0.0212,0.0219,0.0213,0.0196,0.0155,0.0145,0.0178,0.0105,0.0094,0.0069,0.0072,0.0046,0.0043,-0.0033,-0.0033,-0.0033,0.005,0,0,0,0,0,0,0.0255,0.0256,0.0265,0.0245,0.0242,0.0238,0.022,0.0213,0.0198,0.0194,0.0142,0.0132,0.0104,0.0074,0.0066,0.0067,0.0041,-0.0033,-0.0033,-0.0033,0.0048,0.0053,0.0058,0,0,0,0,0,0.0255,0.0269,0.0266,0.0266,0.0255,0.0238,0.0233,0.0209,0.0198,0.0191,0.0166,0.0133,0.0066,0.0072,0.0062,0.0062,-0.0033,-0.0033,-0.0033,0.0045,0.0052,0.0057,0,0,0,0,0,0,0.0276,0.0265,0.0261,0.0274,0.0257,0.0231,0.0226,0.0209,0.0184,0.0182,0.0139,0.0128,0.0113,0.007,0.0078,0.0035,0.0008,0.0006,0.0071,0.0077,0.0082,0.0128,0.0038,0,0,0,0,0,0.0286,0.029,0.0274,0.0284,0.0277,0.0251,0.0242,0.0227,0.0204,0.0192,0.0145,0.011,0.0104,0.0078,0.0056,0.0027,-0.0006,0.0016,0.0021,0.0025,0.0054,-0.0011,-0.0009,-0.0034,-0.0034,-0.0034,0,0,0.0301,0.0293,0.0299,0.0288,0.0273,0.0276,0.0243,0.0233,0.0241,0.0185,0.0162,0.0132,0.0105,0.0089,0.0074,0.0049,0.0016,0.0025,0.003,0.0056,-0.0011,-0.0009,-0.0006,-0.0034,-0.0034,-0.0034,0,0,0.0328,0.0322,0.0333,0.0321,0.0304,0.0291,0.0288,0.025,0.0239,0.0231,0.0197,0.0179,0.0131,0.0117,0.0113,0.0128,0.0058,0.0091,0.0138,0.0074,0.0076,0.0078,0.0049,0.0047,0.0077,0.0077,0.0077,0,0.0346,0.0361,0.0333,0.0337,0.0342,0.0301,0.032,0.0306,0.0261,0.0262,0.0236,0.0201,0.0166,0.018,0.0181,0.0146,0.0093,0.0123,0.0083,0.0084,0.0084,0.0054,0.0051,0.0081,0.008,0.008,0.0079,0,0.038,0.0391,0.0394,0.0394,0.0393,0.0398,0.0383,0.0359,0.0344,0.0336,0.0336,0.0296,0.0275,0.0249,0.0228,0.0204,0.0163,0.0112,0.0075,0.0092,0.0058,0.0054,0.0086,0.0085,0.0084,0.0083,0,0,0.0416,0.0422,0.0421,0.0441,0.0428,0.0434,0.0443,0.045,0.0472,0.0426,0.0454,0.0436,0.0398,0.039,0.0333,0.0273,0.023,0.0184,0.0179,0.0171,0.0093,0.0073,0.0066,0.0142,0.0142,0.0141,0.0074,0,0.0452,0.0491,0.048,0.0521,0.0544,0.0516,0.0541,0.0541,0.0535,0.0534,0.051,0.0514,0.0456,0.0439,0.038,0.0267,0.0218,0.0255,0.0066,0.0062,0.0054,0.0061,0.0088,0.0029,0.0069,0.0068,0.0067,0,0.0484,0.0511,0.0572,0.0605,0.0613,0.0632,0.0664,0.0679,0.0677,0.0673,0.0662,0.0624,0.0573,0.0505,0.0355,0.0364,0.025,0.0159,0.0153,0.0109,0.0034,0.0014,0.0019,0.0059,0.006,0.006,0.0061,0,0.0534,0.0567,0.063,0.0641,0.0676,0.0696,0.0708,0.0723,0.0756,0.0745,0.0768,0.0699,0.0675,0.0517,0.0351,0.0325,0.0173,0.0112,0.0006,0.0004,-0.0015,-0.0018,0.0014,0.0014,0.0014,0.0014,0.0015,0,0.058,0.0618,0.0659,0.0691,0.0761,0.0764,0.0837,0.0826,0.0856,0.092,0.0842,0.0869,0.0665,0.0559,0.0381,0.0195,0.0195,0.0037,-0.0016,0.0015,0.0016,0.0003,0.0003,0.0012,0.0012,0.0013,0.0013,0,0.0623,0.0652,0.0718,0.0771,0.0788,0.0839,0.09,0.0959,0.0968,0.1041,0.1038,0.0979,0.0839,0.0646,0.0402,0.0256,0.0058,-0.0008,0.0066,0.0023,-0.0072,-0.0068,-0.0133,-0.0134,-0.0135,-0.0136,-0.0137,0,0.0648,0.0695,0.0773,0.0824,0.0849,0.0922,0.0983,0.1006,0.1076,0.1121,0.1168,0.1067,0.102,0.0686,0.0392,0.01,0.0061,-0.0059,-0.0093,-0.0042,-0.0088,-0.0082,-0.0076,-0.0083,-0.0083,-0.0083,-0.0084,0,0.0695,0.0729,0.0787,0.0892,0.0965,0.1054,0.1136,0.1207,0.1265,0.132,0.1367,0.1321,0.1037,0.075,0.0365,0.0165,-0.0016,-0.0072,-0.0056,-0.0048,-0.0001,-0.0044,-0.0039,-0.0085,-0.0085,-0.0085,-0.0085,-0.0085,0.0721,0.0772,0.0858,0.0956,0.1048,0.1172,0.1255,0.1358,0.1465,0.1547,0.1505,0.1441,0.1139,0.0638,0.031,-0.0032,-0.0022,-0.0147,-0.0144,-0.0142,-0.0122,-0.008,-0.0173,-0.0173,-0.0173,-0.0174,-0.0174,0,0.0752,0.0818,0.0914,0.1035,0.1146,0.1191,0.1351,0.1437,0.1572,0.1631,0.1644,0.1348,0.1037,0.0683,0.0182,-0.0116,-0.0141,-0.0214,-0.0172,-0.0168,-0.0165,-0.0145,-0.0203,-0.0204,-0.0204,-0.0205,0,0,0.0773,0.0864,0.0917,0.109,0.1186,0.1337,0.1435,0.1552,0.1627,0.167,0.1632,0.1548,0.1135,0.0773,0.0373,0.0087,0.0024,0.0023,0.0079,0.018,0.0187,-0.0094,-0.0054,0,0,0,0,0]}],[{"header":{"parameterUnit":"m.s-1","parameterCategory":2,"la1":30.2991,"la2":30.254,"lo1":-89.0895,"lo2":-89.0444,"dy":0.0017,"dx":0.0017,"nx":28,"ny":28,"refTime":"2023-09-09T21:00:00:Z","depth":"4","parameterNumber":2,"parameterNumberName":"U-component_of_CURRENTS"},"data":[0,0,0,0,0,0,0,0,0,0,0,0,0,0,0,0,0,0,0,0,0,0,0,0,0,0,0,0,0,0,0,0,0,0,0,0,0,0,0,0,0,0,0,0,0,0,0,0,0,0,0,0,0,0,0,0,0,0,0.1355,0.1356,0,0.1397,0.1397,0.1397,0.1426,0.1426,0.1427,0.1427,0.1514,0.1516,0.1518,0,0,0,0,0,0,0,0,0,0,0,0,0,0.1303,0.1304,0.1355,0.1356,0.1357,0.1397,0.1397,0.1398,0.1426,0.1426,0.1427,0.1427,0.1513,0.1516,0.1518,0,0,0,0,0,0,0,0,0,0,0,0,0,0.1332,0.1304,0.1355,0.1376,0.1379,0.1397,0.1397,0.1398,0.1426,0.1426,0.1427,0.1427,0.1513,0.1515,0.1518,0.1527,0,0,0.1528,0.1529,0,0,0,0,0,0,0,0,0.133,0.1334,0.1373,0.1375,0.1378,0.1408,0.1411,0.1444,0.1426,0.1407,0.1427,0.1428,0.1483,0.1489,0.1493,0.1531,0.1535,0.1528,0.153,0.1531,0.1532,0,0,0,0,0,0,0,0.1328,0.1332,0.137,0.1373,0.1376,0.1385,0.1389,0.1417,0.1442,0.1408,0.1411,0.1417,0.1485,0.149,0.1495,0.1536,0.1528,0.1531,0.1532,0.1534,0.167,0.1672,0,0,0,0,0,0,0.1325,0.133,0.1369,0.1372,0.1356,0.1385,0.139,0.1397,0.144,0.1448,0.1417,0.1418,0.1484,0.1492,0.1499,0.157,0.1531,0.1534,0.1536,0.1668,0.167,0.1672,0,0,0,0,0,0,0.1324,0.1328,0.1368,0.1353,0.1359,0.1386,0.1393,0.1397,0.1436,0.1447,0.1454,0.1455,0.1485,0.1494,0.1558,0.1571,0.1535,0.1538,0.1666,0.1669,0.1671,0.1675,0,0,0,0,0,0,0.1322,0.1327,0.1353,0.1353,0.136,0.1411,0.1392,0.1398,0.1438,0.1441,0.1482,0.1488,0.1486,0.1554,0.1561,0.1575,0.154,0.1664,0.1667,0.167,0.1673,0.1678,0.1682,0,0,0,0,0,0.132,0.134,0.1354,0.136,0.1387,0.1413,0.1418,0.1437,0.144,0.1471,0.1496,0.1488,0.158,0.1558,0.1566,0.1581,0.1662,0.1666,0.167,0.1671,0.1677,0.1682,0,0,0,0,0,0,0.1327,0.1345,0.136,0.1386,0.1417,0.1419,0.1448,0.1459,0.1501,0.1513,0.1517,0.1526,0.1581,0.1594,0.1569,0.1634,0.1618,0.1624,0.1616,0.1621,0.1626,0.1659,0.1543,0,0,0,0,0,0.1342,0.1369,0.1386,0.1416,0.143,0.1448,0.1469,0.1484,0.1508,0.1528,0.1548,0.1576,0.1599,0.1623,0.1648,0.1692,0.1718,0.1708,0.1712,0.1716,0.1751,0.1801,0.1813,0.1686,0.1686,0.1686,0,0,0.1347,0.1369,0.1381,0.1422,0.1443,0.1466,0.1463,0.1504,0.1529,0.1532,0.1582,0.1598,0.1617,0.1656,0.1682,0.1672,0.1763,0.1721,0.1723,0.1758,0.1807,0.1819,0.183,0.1688,0.1688,0.1688,0,0,0.1359,0.1399,0.1418,0.1448,0.1496,0.151,0.1531,0.1555,0.1579,0.163,0.1627,0.1666,0.1706,0.1715,0.1724,0.178,0.1785,0.1781,0.183,0.1877,0.1888,0.1897,0.1927,0.1939,0.1783,0.1783,0.1783,0,0.1371,0.1395,0.1432,0.1459,0.1485,0.1531,0.1553,0.1585,0.1629,0.1654,0.1658,0.172,0.1734,0.1771,0.179,0.1789,0.1817,0.1796,0.1881,0.1892,0.1902,0.193,0.1944,0.1783,0.1783,0.1783,0.1783,0,0.1384,0.1418,0.1435,0.1484,0.1523,0.1558,0.1599,0.1649,0.1683,0.1704,0.1768,0.1789,0.1832,0.1826,0.183,0.1898,0.1893,0.1876,0.1861,0.1915,0.1941,0.1955,0.1784,0.1784,0.1784,0.1784,0,0,0.1369,0.1429,0.144,0.1467,0.1541,0.157,0.1631,0.1689,0.173,0.1784,0.1834,0.1875,0.1902,0.1919,0.1917,0.196,0.2039,0.1961,0.1963,0.198,0.2144,0.2015,0.2017,0.2035,0.2038,0.2041,0.2125,0,0.1372,0.1409,0.1449,0.1504,0.1524,0.1595,0.1639,0.1708,0.1768,0.1833,0.1879,0.1931,0.1929,0.1957,0.2004,0.2039,0.2082,0.2018,0.2101,0.2104,0.1974,0.2032,0.2051,0.2136,0.2139,0.2141,0.2143,0,0.1371,0.1399,0.1435,0.1504,0.1522,0.1572,0.1672,0.1724,0.1825,0.1868,0.1947,0.199,0.208,0.2063,0.2173,0.2136,0.2163,0.2177,0.218,0.2078,0.2002,0.2079,0.2169,0.2167,0.2165,0.2163,0.2162,0,0.1334,0.1396,0.1427,0.1452,0.1531,0.1581,0.1644,0.1741,0.1801,0.1918,0.1977,0.2068,0.2139,0.22,0.2261,0.2233,0.237,0.2318,0.2222,0.2212,0.2299,0.2288,0.2403,0.2403,0.2403,0.2403,0.2402,0,0.1311,0.1343,0.1419,0.1437,0.1491,0.1568,0.165,0.1718,0.1837,0.1912,0.2009,0.2079,0.2187,0.2274,0.2302,0.2318,0.2408,0.2259,0.2237,0.2295,0.2283,0.2308,0.2295,0.2406,0.2405,0.2405,0.2404,0,0.1259,0.1307,0.135,0.1438,0.1473,0.1523,0.1659,0.1716,0.1833,0.1945,0.1997,0.2135,0.2237,0.2317,0.2414,0.2358,0.2383,0.236,0.2436,0.2412,0.218,0.2168,0.2255,0.2251,0.2248,0.2246,0.2244,0,0.1226,0.1241,0.1341,0.1376,0.1426,0.1513,0.1569,0.1699,0.1767,0.1961,0.2005,0.2159,0.2234,0.2266,0.235,0.2386,0.2356,0.2344,0.2252,0.2202,0.2172,0.2164,0.2156,0.2239,0.2238,0.2237,0.2236,0,0.1167,0.1221,0.1259,0.1322,0.1392,0.1453,0.1554,0.1589,0.1746,0.188,0.1969,0.2032,0.2136,0.2193,0.224,0.2258,0.2336,0.2311,0.2316,0.223,0.2183,0.2154,0.215,0.2226,0.2227,0.2228,0.2229,0,0.1138,0.1148,0.1212,0.1259,0.1339,0.1373,0.1427,0.1512,0.1591,0.1801,0.1832,0.1986,0.2121,0.213,0.218,0.2186,0.2142,0.2056,0.2073,0.2086,0.1991,0.1904,0.1866,0,0,0,0,0,0.1104,0.1108,0.1145,0.1189,0.1263,0.1303,0.1411,0.1471,0.1623,0.1645,0.1734,0.1823,0.1899,0.1976,0.1948,0.21,0.2144,0.2057,0.2051,0.2167,0.2179,0.2082,0,0,0,0,0,0,0.1083,0.1118,0.1116,0.1124,0.1139,0.1202,0.1258,0.1351,0.1365,0.1531,0.158,0.1717,0.1813,0.1903,0.1917,0.1941,0.19,0.216,0.2155,0.216,0.2171,0.2181,0.2086,0,0,0,0,0]},{"header":{"parameterUnit":"m.s-1","parameterCategory":2,"la1":30.2991,"la2":30.254,"lo1":-89.0895,"lo2":-89.0444,"dy":0.0017,"dx":0.0017,"nx":28,"ny":28,"refTime":"2023-09-09T21:00:00:Z","depth":"4","parameterNumber":3,"parameterNumberName":"V-component_of_CURRENTS"},"data":[0,0,0,0,0,0,0,0,0,0,0,0,0,0,0,0,0,0,0,0,0,0,0,0,0,0,0,0,0,0,0,0,0,0,0,0,0,0,0,0,0,0,0,0,0,0,0,0,0,0,0,0,0,0,0,0,0,0,0.0347,0.0346,0,0.0306,0.0305,0.0305,0.0292,0.0292,0.0292,0.0292,0.0246,0.0245,0.0243,0,0,0,0,0,0,0,0,0,0,0,0,0,0.033,0.0331,0.0347,0.0346,0.0346,0.0306,0.0305,0.0304,0.0292,0.0292,0.0292,0.0292,0.0247,0.0245,0.0243,0,0,0,0,0,0,0,0,0,0,0,0,0,0.0318,0.0331,0.0347,0.0335,0.0333,0.0306,0.0305,0.0304,0.0292,0.0292,0.0292,0.0292,0.0247,0.0245,0.0243,0.0224,0,0,0.0237,0.0236,0,0,0,0,0,0,0,0,0.0319,0.0318,0.0337,0.0335,0.0334,0.0304,0.0282,0.0277,0.0291,0.0307,0.0292,0.0293,0.0265,0.0261,0.0253,0.0222,0.022,0.0236,0.0235,0.0234,0.0234,0,0,0,0,0,0,0,0.032,0.032,0.033,0.0336,0.0334,0.0302,0.0302,0.0281,0.0285,0.0306,0.0305,0.03,0.0264,0.0255,0.0252,0.0219,0.0236,0.0235,0.0233,0.0232,0.0199,0.02,0,0,0,0,0,0,0.0329,0.0321,0.0332,0.0329,0.0327,0.0303,0.0302,0.0313,0.0285,0.0281,0.03,0.03,0.0258,0.0254,0.025,0.0271,0.0234,0.0232,0.0231,0.0199,0.0199,0.02,0,0,0,0,0,0,0.0329,0.0331,0.0333,0.0323,0.0321,0.0303,0.0315,0.0312,0.0305,0.0281,0.0277,0.0297,0.0259,0.0253,0.025,0.0268,0.0231,0.0229,0.0198,0.0199,0.02,0.0284,0,0,0,0,0,0,0.0329,0.0332,0.0341,0.0324,0.0322,0.032,0.0315,0.0311,0.0302,0.0301,0.0276,0.0272,0.0258,0.0253,0.0248,0.0264,0.0228,0.0198,0.0199,0.0199,0.0281,0.0288,0.0293,0,0,0,0,0,0.0329,0.0339,0.0342,0.0343,0.0337,0.032,0.0316,0.0303,0.0302,0.0298,0.0295,0.0273,0.0254,0.0252,0.0246,0.0262,0.0198,0.0198,0.0199,0.0278,0.0286,0.0293,0,0,0,0,0,0,0.0332,0.0338,0.0341,0.0353,0.034,0.0318,0.0314,0.0304,0.0297,0.0302,0.028,0.0276,0.0281,0.0254,0.0253,0.0252,0.022,0.022,0.0283,0.029,0.0296,0.0297,0.0226,0,0,0,0,0,0.034,0.0355,0.0345,0.0355,0.0351,0.0333,0.0325,0.0317,0.0308,0.0304,0.0294,0.0282,0.0277,0.0271,0.0258,0.0255,0.0211,0.0259,0.0265,0.0271,0.0266,0.0219,0.022,0.0203,0.0203,0.0203,0,0,0.0347,0.0349,0.036,0.0357,0.0348,0.0352,0.0329,0.0321,0.0331,0.03,0.0315,0.0303,0.0281,0.0289,0.0287,0.027,0.0253,0.0272,0.0277,0.0269,0.022,0.0221,0.0223,0.0203,0.0203,0.0203,0,0,0.0362,0.0369,0.0385,0.0381,0.0372,0.0362,0.0362,0.0348,0.0349,0.0353,0.0345,0.0344,0.0327,0.0324,0.0318,0.0343,0.0289,0.0338,0.0371,0.0326,0.0327,0.0328,0.028,0.0275,0.034,0.034,0.0341,0,0.0366,0.0394,0.0383,0.0394,0.04,0.0372,0.0388,0.038,0.0371,0.0378,0.0367,0.0362,0.0344,0.0358,0.0373,0.0358,0.032,0.0351,0.0335,0.0334,0.0333,0.0284,0.0278,0.0345,0.0344,0.0344,0.0343,0,0.0397,0.0418,0.0424,0.0442,0.0441,0.0447,0.044,0.0443,0.0439,0.0431,0.0442,0.0423,0.0419,0.0416,0.0403,0.0399,0.037,0.0352,0.032,0.034,0.0287,0.0279,0.0351,0.0349,0.0348,0.0347,0,0,0.0408,0.0442,0.0445,0.0471,0.0471,0.0476,0.0493,0.0499,0.0515,0.05,0.052,0.0511,0.0496,0.0486,0.0472,0.0435,0.04,0.0395,0.0391,0.0353,0.0296,0.0266,0.0253,0.038,0.0379,0.0378,0.0264,0,0.0435,0.0478,0.0487,0.0531,0.0553,0.0548,0.0571,0.0573,0.0564,0.0573,0.0548,0.0556,0.0525,0.0533,0.0492,0.0426,0.0382,0.0432,0.0275,0.027,0.0246,0.0244,0.0375,0.0257,0.0255,0.0254,0.0253,0,0.046,0.0489,0.0544,0.0594,0.0604,0.0629,0.0661,0.0678,0.0673,0.0668,0.0658,0.063,0.0599,0.0561,0.0443,0.0477,0.0391,0.0327,0.0321,0.0254,0.0225,0.0228,0.0238,0.0239,0.024,0.0241,0.0242,0,0.0475,0.0528,0.058,0.0597,0.0645,0.0677,0.0701,0.0709,0.0734,0.0729,0.0733,0.0683,0.0663,0.0553,0.0423,0.043,0.0271,0.0262,0.0151,0.0148,0.0172,0.0173,0.0162,0.0163,0.0163,0.0163,0.0164,0,0.0498,0.0539,0.0598,0.0628,0.0697,0.0718,0.078,0.0791,0.081,0.0837,0.0791,0.0784,0.0656,0.0555,0.043,0.0262,0.0271,0.0148,0.0114,0.0211,0.0217,0.0166,0.0168,0.0159,0.016,0.0161,0.0161,0,0.0506,0.0544,0.0609,0.0679,0.0709,0.076,0.0837,0.0874,0.0885,0.0914,0.0917,0.0849,0.0713,0.0566,0.0377,0.0274,0.0117,0.0053,0.0162,0.0138,0.0021,0.0029,-0.008,-0.0082,-0.0084,-0.0085,-0.0086,0,0.0512,0.0548,0.0646,0.0694,0.0733,0.0812,0.0868,0.091,0.0945,0.0947,0.0959,0.0851,0.0781,0.0498,0.0336,0.0086,0.0052,-0.0029,-0.0001,0.0017,-0.0005,0.0006,0.0015,-0.0089,-0.009,-0.009,-0.0091,0,0.052,0.0561,0.0617,0.0716,0.0791,0.0874,0.0951,0.0978,0.1021,0.1031,0.098,0.0846,0.0689,0.0485,0.0288,0.0112,0.0027,-0.0047,-0.0045,-0.0019,0.0004,-0.0013,-0.0002,-0.0097,-0.0096,-0.0095,-0.0095,0,0.0525,0.0562,0.0641,0.0729,0.0824,0.0904,0.0949,0.0989,0.1024,0.1025,0.1,0.0844,0.0761,0.0495,0.0314,0.0137,0.0095,0.0046,0.0043,0.0048,0.012,0.0171,0.0085,0,0,0,0,0,0.0521,0.0566,0.0646,0.0745,0.084,0.0898,0.099,0.1027,0.1066,0.1033,0.1018,0.0871,0.0607,0.0501,0.0316,0.027,0.0056,0.0045,-0.0003,-0.013,-0.0123,-0.0063,0,0,0,0,0,0,0.052,0.059,0.0635,0.0739,0.0808,0.0914,0.0975,0.1006,0.099,0.1,0.0864,0.0815,0.056,0.0705,0.0307,0.0255,0.0197,-0.0069,-0.0073,-0.0134,-0.0128,-0.0122,-0.0058,0,0,0,0,0]}]]